STARLINK-34506

Last updated on Thu Jul 03 2025 00:02:07 GMT+0000 (Coordinated Universal Time)

1 64432U 25129W 25183.58335648 -.01556149 00000+0 -18470-1 0 9992 2 64432 69.9999 351.5368 0003355 263.3572 46.6127 15.63973780 3465
UTC large
Height (km)
Speed (km/s)
/
Latitude / Longitude
Inclination (degrees)
Orbital Period (minutes)
Azimuth
Elevation
Range (km)
Doppler Factor

Next 0 passes for location: London (51.5072 / 0.1276)

Sorry there are no passes over London.